Location: Gadern
(49.5873°N, 8.8138°E)
Time: 19:14:17
(UTC+00:00)

ARIANE 5 R/B - Pass Details

Date: 19 May 2025
Orbit: 614 x 648 km, 98.0° (Epoch: 16 June)

Event Time Altitude Azimuth Distance (km) Brightness Sun altitude
Exits shadow 23:01:18 31° 235° (SW) 1,102 3.6 -20.3°
Maximum altitude 23:02:17 34° 264° (W) 1,018 3.6 -20.3°
Drops below altitude 10° 23:06:16 10° 330° (NNW) 2,002 6.1 -20.3°
Sets 23:08:38 0° 339° (NNW) 2,919 7.3 -20.4°
